CW0803 Weather Reports


Display with metric or nautical units.
time (UTC)temp
F
wind
direction
speed
MPH
gust
MPH
rain 1hr
in
rain 24hr
in
rain mn
in
humidity
%
barometer
mb
20190523005806 72 124 2.0 5.0 0.00 0.00 0.00 72 1024.5
20190523005306 72 94 2.0 5.0 0.00 0.00 0.00 71 1024.4
20190523004805 73 115 2.0 5.0 0.00 0.00 0.00 70 1024.4
20190523004305 73 114 2.0 5.0 0.00 0.00 0.00 69 1024.5
20190523003805 73 109 2.0 3.0 0.00 0.00 0.00 68 1024.4
20190523003306 73 106 2.0 3.0 0.00 0.00 0.00 67 1024.4
20190523002806 73 107 3.0 5.0 0.00 0.00 0.00 66 1024.3
20190523002305 73 62 2.0 5.0 0.00 0.00 0.00 65 1024.3
20190523001805 74 95 2.0 3.0 0.00 0.00 0.00 65 1024.3
20190523001306 74 80 1.0 7.0 0.00 0.00 0.00 64 1024.4
20190523000805 74 131 2.0 7.0 0.00 0.00 0.00 65 1024.3
20190523000306 74 123 2.0 3.0 0.00 0.00 0.00 65 1024.4
20190522235805 74 127 2.0 6.0 0.00 0.00 0.00 64 1024.3
20190522235305 75 84 3.0 8.0 0.00 0.00 0.00 64 1024.4
20190522234805 75 91 2.0 8.0 0.00 0.00 0.00 64 1024.3
20190522234305 75 79 4.0 8.0 0.00 0.00 0.00 64 1024.4
20190522233805 75 86 2.0 8.0 0.00 0.00 0.00 63 1024.4
20190522233305 75 136 2.0 8.0 0.00 0.00 0.00 63 1024.4
20190522232806 76 88 3.0 8.0 0.00 0.00 0.00 62 1024.4
20190522232306 76 87 3.0 9.0 0.00 0.00 0.00 62 1024.3
20190522231806 76 68 3.0 9.0 0.00 0.00 0.00 62 1024.3
20190522231305 76 119 3.0 10.0 0.00 0.00 0.00 62 1024.3
20190522230805 76 84 4.0 10.0 0.00 0.00 0.00 61 1024.3
20190522230306 77 75 4.0 13.0 0.00 0.00 0.00 61 1024.3
20190522225806 77 124 5.0 13.0 0.00 0.00 0.00 61 1024.3
20190522225306 77 95 5.0 13.0 0.00 0.00 0.00 62 1024.3
20190522224805 77 102 5.0 10.0 0.00 0.00 0.00 62 1024.4
20190522224305 77 73 5.0 12.0 0.00 0.00 0.00 62 1024.4
20190522223805 77 69 5.0 12.0 0.00 0.00 0.00 62 1024.5
20190522223305 77 86 4.0 9.0 0.00 0.00 0.00 62 1024.3
20190522222805 78 125 5.0 9.0 0.00 0.00 0.00 62 1024.4
20190522222305 78 82 4.0 9.0 0.00 0.00 0.00 62 1024.6
20190522221806 78 105 5.0 9.0 0.00 0.00 0.00 61 1024.5
20190522221306 78 124 5.0 13.0 0.00 0.00 0.00 60 1024.5
20190522220805 78 86 4.0 13.0 0.00 0.00 0.00 62 1024.4
20190522220306 78 120 5.0 9.0 0.00 0.00 0.00 61 1024.3
20190522215805 78 122 6.0 12.0 0.00 0.00 0.00 60 1024.3
20190522215305 78 87 4.0 14.0 0.00 0.00 0.00 60 1024.3
20190522214805 79 86 6.0 14.0 0.00 0.00 0.00 60 1024.3
20190522214305 79 110 5.0 12.0 0.00 0.00 0.00 60 1024.3
20190522213806 79 153 6.0 12.0 0.00 0.00 0.00 60 1024.3
20190522213305 79 71 4.0 13.0 0.00 0.00 0.00 60 1024.1
20190522212805 79 135 7.0 13.0 0.00 0.00 0.00 59 1024.1
20190522212305 80 114 3.0 10.0 0.00 0.00 0.00 60 1024.1
20190522211805 80 125 4.0 10.0 0.00 0.00 0.00 60 1024.1
20190522211305 80 115 5.0 10.0 0.00 0.00 0.00 59 1024.1
20190522210806 81 101 5.0 8.0 0.00 0.00 0.00 58 1024.1
20190522210305 81 121 3.0 8.0 0.00 0.00 0.00 59 1024.0
20190522205805 81 65 4.0 9.0 0.00 0.00 0.00 60 1023.9
20190522205305 81 93 4.0 10.0 0.00 0.00 0.00 61 1023.8
20190522204805 81 96 2.0 10.0 0.00 0.00 0.00 61 1023.8
20190522204305 81 139 3.0 10.0 0.00 0.00 0.00 60 1023.8
20190522203805 81 117 5.0 10.0 0.00 0.00 0.00 59 1023.8
20190522203305 81 153 5.0 10.0 0.00 0.00 0.00 58 1023.8
20190522202806 82 78 3.0 10.0 0.00 0.00 0.00 59 1023.8
20190522202305 82 99 5.0 10.0 0.00 0.00 0.00 58 1023.9
20190522201805 82 117 5.0 12.0 0.00 0.00 0.00 57 1023.9
20190522201305 82 112 4.0 12.0 0.00 0.00 0.00 58 1023.9
20190522200805 82 107 4.0 9.0 0.00 0.00 0.00 58 1023.9
20190522200305 82 88 4.0 12.0 0.00 0.00 0.00 56 1023.8
20190522195806 83 114 4.0 12.0 0.00 0.00 0.00 56 1023.9
20190522195305 83 84 5.0 12.0 0.00 0.00 0.00 57 1023.9
20190522194805 83 51 4.0 12.0 0.00 0.00 0.00 57 1023.9
20190522194305 83 59 4.0 10.0 0.00 0.00 0.00 57 1023.9
20190522193805 82 112 3.0 12.0 0.00 0.00 0.00 61 1023.8
20190522193306 80 85 6.0 12.0 0.00 0.00 0.00 63 1023.6
20190522192805 79 42 4.0 9.0 0.00 0.00 0.00 65 1023.7
20190522192305 79 80 4.0 9.0 0.00 0.00 0.00 65 1023.6
20190522191805 79 96 4.0 10.0 0.00 0.00 0.00 65 1023.6
20190522191305 79 103 6.0 12.0 0.00 0.00 0.00 65 1023.6
20190522190805 80 126 5.0 12.0 0.00 0.00 0.00 64 1023.6
20190522190305 80 112 5.0 12.0 0.00 0.00 0.00 64 1023.5
20190522185806 80 82 5.0 10.0 0.00 0.00 0.00 63 1023.5
20190522185305 80 114 3.0 10.0 0.00 0.00 0.00 65 1023.5
20190522184805 80 97 3.0 12.0 0.00 0.00 0.00 65 1023.5
20190522184305 80 110 6.0 12.0 0.00 0.00 0.00 64 1023.5
20190522183805 80 102 5.0 10.0 0.00 0.00 0.00 65 1023.4
20190522183305 79 113 3.0 12.0 0.00 0.00 0.00 66 1023.5
20190522182805 79 92 3.0 13.0 0.00 0.00 0.00 65 1023.4
20190522182305 79 100 5.0 13.0 0.00 0.00 0.00 65 1023.4
20190522181805 78 87 5.0 13.0 0.00 0.00 0.00 66 1023.4
20190522181305 78 139 8.0 13.0 0.00 0.00 0.00 66 1023.5
20190522180805 78 142 5.0 10.0 0.00 0.00 0.00 67 1023.5
20190522180305 78 120 5.0 10.0 0.00 0.00 0.00 67 1023.5
20190522175805 78 106 5.0 13.0 0.00 0.00 0.00 66 1023.4
20190522175305 78 99 5.0 13.0 0.00 0.00 0.00 66 1023.3
20190522174806 78 103 3.0 12.0 0.00 0.00 0.00 67 1023.3
20190522174305 78 142 3.0 12.0 0.00 0.00 0.00 68 1023.2
20190522173805 78 75 4.0 12.0 0.00 0.00 0.00 67 1023.2
20190522173305 79 121 5.0 10.0 0.00 0.00 0.00 67 1023.2
20190522172808 79 94 4.0 12.0 0.00 0.00 0.00 66 1023.2
20190522172305 79 92 5.0 12.0 0.00 0.00 0.00 67 1023.2
20190522171805 80 81 4.0 9.0 0.00 0.00 0.00 68 1023.0
20190522171305 80 121 5.0 10.0 0.00 0.00 0.00 67 1022.9
20190522170806 80 63 5.0 10.0 0.00 0.00 0.00 67 1022.9
20190522170305 80 81 5.0 13.0 0.00 0.00 0.00 66 1022.9
20190522165805 80 87 5.0 13.0 0.00 0.00 0.00 66 1022.8
20190522165305 81 82 4.0 12.0 0.00 0.00 0.00 67 1022.8
20190522164805 81 96 6.0 12.0 0.00 0.00 0.00 64 1022.8
20190522164305 82 111 6.0 10.0 0.00 0.00 0.00 65 1022.7
20190522163805 83 145 5.0 10.0 0.00 0.00 0.00 64 1022.7
20190522163305 83 114 5.0 9.0 0.00 0.00 0.00 63 1022.6
20190522162805 83 83 3.0 10.0 0.00 0.00 0.00 64 1022.6
20190522162306 83 84 4.0 10.0 0.00 0.00 0.00 64 1022.7
20190522161805 83 141 7.0 12.0 0.00 0.00 0.00 62 1022.8
20190522161305 83 64 5.0 12.0 0.00 0.00 0.00 63 1022.8
20190522160806 82 68 6.0 12.0 0.00 0.00 0.00 65 1022.8
20190522160305 81 138 4.0 10.0 0.00 0.00 0.00 66 1022.7
20190522155805 81 91 5.0 12.0 0.00 0.00 0.00 64 1022.8
20190522155305 81 97 3.0 12.0 0.00 0.00 0.00 66 1022.8
20190522154805 80 60 4.0 13.0 0.00 0.00 0.00 66 1022.8
20190522154305 80 55 3.0 13.0 0.00 0.00 0.00 64 1022.9
20190522153806 81 45 2.0 12.0 0.00 0.00 0.00 63 1022.9
20190522153305 81 104 5.0 10.0 0.00 0.00 0.00 65 1022.9
20190522152805 81 28 4.0 9.0 0.00 0.00 0.00 64 1022.9
20190522152305 80 42 5.0 12.0 0.00 0.00 0.00 66 1022.9
20190522151805 79 52 5.0 12.0 0.00 0.00 0.00 67 1023.0
20190522151305 78 87 5.0 12.0 0.00 0.00 0.00 67 1022.8
20190522150805 78 17 5.0 9.0 0.00 0.00 0.00 67 1022.9
20190522150305 78 12 5.0 10.0 0.00 0.00 0.00 67 1022.9
20190522145805 78 40 4.0 10.0 0.00 0.00 0.00 69 1022.9
20190522145305 77 16 5.0 10.0 0.00 0.00 0.00 69 1022.9
20190522144805 77 19 6.0 12.0 0.00 0.00 0.00 69 1022.9
20190522144305 77 7 5.0 12.0 0.00 0.00 0.00 69 1022.8
20190522143805 78 33 5.0 8.0 0.00 0.00 0.00 69 1022.8
20190522143305 78 32 3.0 8.0 0.00 0.00 0.00 71 1022.6
20190522142805 78 39 3.0 8.0 0.00 0.00 0.00 70 1022.6
20190522142305 78 58 3.0 9.0 0.00 0.00 0.00 69 1022.5
20190522141805 77 63 2.0 9.0 0.00 0.00 0.00 71 1022.5
20190522141305 76 55 5.0 9.0 0.00 0.00 0.00 74 1022.5
20190522140805 76 14 6.0 9.0 0.00 0.00 0.00 73 1022.4
20190522140305 77 15 5.0 9.0 0.00 0.00 0.00 73 1022.4
20190522135805 77 40 4.0 10.0 0.00 0.00 0.00 73 1022.4
20190522135305 77 93 5.0 10.0 0.00 0.00 0.00 74 1022.2
20190522134805 76 63 3.0 12.0 0.00 0.00 0.00 74 1022.2
20190522134305 76 97 3.0 12.0 0.00 0.00 0.00 76 1022.3
20190522133805 75 71 4.0 9.0 0.00 0.00 0.00 77 1022.3
20190522133305 75 81 5.0 9.0 0.00 0.00 0.00 78 1022.2
20190522132805 75 59 3.0 9.0 0.00 0.00 0.00 79 1022.3
20190522132306 75 81 4.0 9.0 0.00 0.00 0.00 80 1022.4
20190522131805 74 122 5.0 10.0 0.00 0.00 0.00 80 1022.3
20190522131305 74 26 6.0 10.0 0.00 0.00 0.00 79 1022.3
20190522130805 74 10 5.0 10.0 0.00 0.00 0.00 80 1022.1
20190522130305 74 18 3.0 10.0 0.00 0.00 0.00 80 1022.2
20190522125805 74 23 5.0 10.0 0.00 0.00 0.00 79 1022.2
20190522125305 74 34 6.0 10.0 0.00 0.00 0.00 80 1022.2
20190522124806 74 97 3.0 13.0 0.00 0.00 0.00 82 1022.1
20190522124305 73 25 7.0 13.0 0.00 0.00 0.00 82 1022.1
20190522123805 73 80 2.0 10.0 0.00 0.00 0.00 84 1022.1
20190522123305 73 14 5.0 12.0 0.00 0.00 0.00 84 1022.1
20190522122806 72 25 5.0 12.0 0.00 0.00 0.00 84 1021.9
20190522122305 72 72 3.0 9.0 0.00 0.00 0.00 86 1022.0
20190522121804 72 81 4.0 9.0 0.00 0.00 0.00 86 1021.9
20190522121305 72 6 4.0 9.0 0.00 0.00 0.00 86 1021.9
20190522120805 72 27 2.0 5.0 0.00 0.00 0.00 87 1021.8
20190522120305 72 37 2.0 7.0 0.00 0.00 0.00 87 1021.8
20190522115805 72 61 2.0 7.0 0.00 0.00 0.00 87 1021.8
20190522115305 72 102 1.0 7.0 0.00 0.00 0.00 87 1021.8
20190522114805 72 35 2.0 6.0 0.00 0.00 0.00 87 1021.7
20190522114306 72 21 4.0 6.0 0.00 0.00 0.00 85 1021.6
20190522113805 71 40 2.0 8.0 0.00 0.00 0.00 86 1021.6
20190522113305 71 65 2.0 8.0 0.00 0.00 0.00 87 1021.5
20190522112805 71 76 4.0 8.0 0.00 0.00 0.00 86 1021.5
20190522112305 71 12 1.0 9.0 0.00 0.00 0.00 87 1021.5
20190522111805 71 81 1.0 9.0 0.00 0.00 0.00 87 1021.5
20190522111305 71 32 5.0 8.0 0.00 0.00 0.00 87 1021.5
20190522110805 71 47 3.0 7.0 0.00 0.00 0.00 87 1021.4
20190522110306 71 31 3.0 8.0 0.00 0.00 0.00 88 1021.4
20190522105805 71 39 1.0 8.0 0.00 0.00 0.00 88 1021.3
20190522105306 71 18 3.0 6.0 0.00 0.00 0.00 88 1021.1
20190522104805 71 18 3.0 6.0 0.00 0.00 0.00 89 1021.1
20190522104305 71 24 1.0 3.0 0.00 0.00 0.00 90 1020.9
20190522103805 70 38 2.0 3.0 0.00 0.00 0.00 90 1020.8
20190522103305 70 45 2.0 5.0 0.00 0.00 0.00 90 1020.9
20190522102805 70 31 0.0 5.0 0.00 0.00 0.00 90 1020.6
20190522102305 70 24 2.0 5.0 0.00 0.00 0.00 90 1020.6
20190522101805 70 32 2.0 5.0 0.00 0.00 0.00 91 1020.5
20190522101305 70 20 2.0 5.0 0.00 0.00 0.00 91 1020.5
20190522100805 70 18 1.0 3.0 0.00 0.00 0.00 91 1020.4
20190522100305 70 18 1.0 2.0 0.00 0.00 0.00 91 1020.4
20190522095805 71 18 1.0 2.0 0.00 0.00 0.00 91 1020.3
20190522095305 71 18 0.0 2.0 0.00 0.00 0.00 91 1020.2
20190522094804 71 18 0.0 2.0 0.00 0.00 0.00 91 1020.1
20190522094305 71 18 0.0 5.0 0.00 0.00 0.00 90 1020.1
20190522093805 71 18 1.0 5.0 0.00 0.00 0.00 91 1020.1
20190522093305 71 20 2.0 5.0 0.00 0.00 0.00 90 1020.0
20190522092805 71 38 2.0 5.0 0.00 0.00 0.00 90 1020.0
20190522092305 72 41 1.0 3.0 0.00 0.00 0.00 90 1020.0
20190522091805 72 68 1.0 3.0 0.00 0.00 0.00 90 1020.0
20190522091305 72 69 1.0 3.0 0.00 0.00 0.00 90 1019.8
20190522090805 72 63 1.0 3.0 0.00 0.00 0.00 90 1019.8
20190522090305 72 12 1.0 3.0 0.00 0.00 0.00 90 1019.8
20190522085804 72 69 1.0 2.0 0.00 0.00 0.00 91 1019.8
20190522085305 72 39 0.0 5.0 0.00 0.00 0.00 91 1019.8
20190522084805 72 72 2.0 5.0 0.00 0.00 0.00 91 1019.7
20190522084305 72 52 2.0 5.0 0.00 0.00 0.00 91 1019.7
20190522083804 72 71 2.0 5.0 0.00 0.00 0.00 91 1019.6
20190522083305 72 45 2.0 3.0 0.00 0.00 0.00 91 1019.6
20190522082805 72 65 1.0 3.0 0.00 0.00 0.00 92 1019.6
20190522082305 72 86 1.0 3.0 0.00 0.00 0.00 92 1019.6
20190522081805 72 54 1.0 3.0 0.00 0.00 0.00 92 1019.7
20190522081305 72 49 2.0 3.0 0.00 0.00 0.00 91 1019.7
20190522080805 72 63 1.0 3.0 0.00 0.00 0.00 91 1019.6
20190522080305 72 70 2.0 6.0 0.00 0.00 0.00 91 1019.5
20190522075805 72 73 2.0 6.0 0.00 0.00 0.00 91 1019.5
20190522075305 72 62 3.0 6.0 0.00 0.00 0.00 91 1019.4
20190522074805 73 4 2.0 6.0 0.00 0.00 0.00 92 1019.4
20190522074304 73 33 2.0 7.0 0.00 0.00 0.00 92 1019.2
20190522073806 73 82 2.0 7.0 0.00 0.00 0.00 92 1019.1
20190522073304 73 39 2.0 7.0 0.00 0.00 0.00 92 1019.1
20190522072805 73 89 3.0 9.0 0.00 0.00 0.00 92 1019.0
20190522072305 73 63 1.0 9.0 0.00 0.00 0.00 93 1019.0
20190522071806 73 75 3.0 6.0 0.00 0.00 0.00 93 1019.0
20190522071305 73 11 2.0 6.0 0.00 0.00 0.00 93 1019.0
20190522070805 73 35 2.0 8.0 0.00 0.00 0.00 93 1019.0
20190522070305 73 76 3.0 8.0 0.00 0.00 0.00 93 1019.0
20190522065805 73 53 2.0 8.0 0.00 0.00 0.00 94 1018.9
20190522065305 73 57 2.0 5.0 0.00 0.00 0.00 94 1018.8
20190522064805 73 95 2.0 9.0 0.00 0.00 0.00 94 1018.9
20190522064305 73 83 3.0 9.0 0.00 0.00 0.00 94 1018.9
20190522063805 73 84 3.0 6.0 0.00 0.00 0.00 94 1018.9
20190522063305 73 54 3.0 9.0 0.00 0.00 0.00 94 1018.8
20190522062805 74 53 3.0 9.0 0.00 0.00 0.00 95 1018.7
20190522062305 74 79 3.0 6.0 0.00 0.00 0.00 95 1018.7
20190522061805 74 58 2.0 7.0 0.00 0.00 0.00 95 1018.8
20190522061305 74 74 3.0 7.0 0.00 0.00 0.00 96 1018.7
20190522060805 74 47 3.0 8.0 0.00 0.00 0.00 96 1018.6
20190522060305 74 63 2.0 8.0 0.00 0.00 0.00 96 1018.5
20190522055804 74 66 2.0 6.0 0.00 0.00 0.00 97 1018.4
20190522055305 74 92 2.0 8.0 0.00 0.00 0.00 97 1018.4
20190522054805 74 62 2.0 8.0 0.00 0.00 0.00 97 1018.5
20190522054305 74 88 4.0 8.0 0.00 0.00 0.00 97 1018.4
20190522053805 74 80 3.0 8.0 0.00 0.00 0.00 97 1018.3
20190522053305 74 77 2.0 3.0 0.00 0.00 0.00 97 1018.4
20190522052805 74 69 1.0 3.0 0.00 0.00 0.00 97 1018.3
20190522052306 74 83 1.0 3.0 0.00 0.00 0.00 97 1018.3
20190522051805 74 82 2.0 3.0 0.00 0.00 0.00 97 1018.2
20190522051305 74 79 1.0 5.0 0.00 0.00 0.00 97 1018.1
20190522050805 74 73 2.0 5.0 0.00 0.00 0.00 97 1018.1
20190522050305 75 77 1.0 3.0 0.00 0.00 0.00 97 1018.1
20190522045805 75 79 1.0 8.0 0.00 0.00 0.00 97 1018.0
20190522045305 75 83 1.0 8.0 0.00 0.00 0.00 97 1017.9
20190522044805 75 94 2.0 5.0 0.00 0.00 0.00 97 1017.9
20190522044305 75 102 1.0 6.0 0.00 0.00 0.00 97 1017.9
20190522043805 75 65 3.0 6.0 0.00 0.00 0.00 97 1017.8
20190522043305 74 91 2.0 3.0 0.00 0.00 0.00 97 1017.8
20190522042805 74 89 1.0 3.0 0.00 0.00 0.00 97 1017.9
20190522042304 74 87 1.0 3.0 0.00 0.00 0.00 97 1017.8
20190522041805 74 85 1.0 2.0 0.00 0.00 0.00 97 1017.7
20190522041305 74 85 1.0 2.0 0.00 0.00 0.00 97 1017.7
20190522040828 74 85 0.0 1.0 0.00 0.00 0.00 97 1017.8
20190522040305 74 85 0.0 1.0 0.00 0.00 0.00 97 1017.8
20190522035805 74 85 1.0 1.0 0.00 0.00 0.00 97 1017.8
20190522035305 74 85 0.0 1.0 0.00 0.00 0.00 97 1017.9
20190522034805 75 85 0.0 2.0 0.00 0.00 0.00 97 1017.7
20190522034305 75 85 1.0 2.0 0.00 0.00 0.00 97 1017.9
20190522033805 75 85 0.0 2.0 0.00 0.00 0.00 97 1017.9
20190522033305 75 85 1.0 2.0 0.00 0.00 0.00 97 1017.8
20190522032805 75 85 0.0 3.0 0.00 0.00 0.00 97 1017.7
20190522032305 75 85 1.0 5.0 0.00 0.00 0.00 97 1017.6
20190522031805 75 93 3.0 5.0 0.00 0.00 0.00 97 1017.7
20190522031304 75 95 1.0 5.0 0.00 0.00 0.00 97 1017.6
20190522030805 74 73 2.0 5.0 0.00 0.00 0.00 97 1017.5
20190522030305 74 35 2.0 2.0 0.00 0.00 0.00 96 1017.5
20190522025805 74 154 0.0 1.0 0.00 0.00 0.00 96 1017.4
20190522025305 74 154 0.0 0.0 0.00 0.00 0.00 96 1017.4
20190522024805 74 154 0.0 0.0 0.00 0.00 0.00 96 1017.2
20190522024305 74 154 0.0 0.0 0.00 0.00 0.00 96 1017.2
20190522023805 74 154 0.0 0.0 0.00 0.00 0.00 96 1017.2
20190522023305 74 154 0.0 0.0 0.00 0.00 0.00 96 1017.1
20190522022805 74 154 0.0 0.0 0.00 0.00 0.00 96 1017.0
20190522022304 74 154 0.0 0.0 0.00 0.00 0.00 95 1016.8
20190522021805 74 154 0.0 0.0 0.00 0.00 0.00 95 1016.8
20190522021305 74 154 0.0 0.0 0.00 0.00 0.00 95 1016.8
20190522020805 75 154 0.0 0.0 0.00 0.00 0.00 95 1016.7
20190522020305 75 154 0.0 0.0 0.00 0.00 0.00 96 1016.7
20190522015804 74 154 0.0 0.0 0.00 0.00 0.00 95 1016.6
20190522015305 75 154 0.0 0.0 0.00 0.00 0.00 95 1016.5
20190522014805 75 154 0.0 0.0 0.00 0.00 0.00 94 1016.4
20190522014305 75 154 0.0 0.0 0.00 0.00 0.00 94 1016.5
20190522013805 75 154 0.0 0.0 0.00 0.00 0.00 94 1016.4
20190522013305 75 154 0.0 0.0 0.00 0.00 0.00 93 1016.3
20190522012805 75 154 0.0 1.0 0.00 0.00 0.00 93 1016.3
20190522012305 76 154 0.0 1.0 0.00 0.00 0.00 93 1016.2
20190522011815 76 158 0.0 1.0 0.00 0.00 0.00 91